Time,TemperatureF,DewpointF,PressureIn,WindDirection,WindDirectionDegrees,WindSpeedMPH,WindSpeedGustMPH,Humidity,HourlyPrecipIn,Conditions,Clouds,dailyrainin,SoftwareType,DateUTC
2013-01-16 00:02:00,28.8,16.2,-100.00,South,172,3.6,3.6,59,0.00,,,0.00,VWS V14.01,2013-01-16 08:02:00,
2013-01-16 00:07:00,28.6,16.1,-100.00,SSE,162,2.7,2.7,59,0.00,,,0.00,VWS V14.01,2013-01-16 08:07:00,
2013-01-16 00:12:00,28.4,16.3,-100.00,South,173,2.7,3.6,60,0.00,,,0.00,VWS V14.01,2013-01-16 08:12:00,
2013-01-16 00:17:00,28.2,16.1,-100.00,SSE,164,3.1,4.0,60,0.00,,,0.00,VWS V14.01,2013-01-16 08:17:00,
2013-01-16 00:22:00,28.2,15.8,-100.00,South,176,5.4,5.4,59,0.00,,,0.00,VWS V14.01,2013-01-16 08:22:00,
2013-01-16 00:27:00,28.4,15.5,-100.00,South,177,4.0,4.0,58,0.00,,,0.00,VWS V14.01,2013-01-16 08:27:00,
2013-01-16 00:32:00,28.4,15.5,-100.00,South,170,3.6,4.9,58,0.00,,,0.00,VWS V14.01,2013-01-16 08:32:00,
2013-01-16 00:37:00,28.4,15.1,-100.00,South,179,4.0,4.0,57,0.00,,,0.00,VWS V14.01,2013-01-16 08:37:00,
2013-01-16 00:42:00,28.2,15.0,-100.00,South,174,2.7,3.1,57,0.00,,,0.00,VWS V14.01,2013-01-16 08:42:00,
2013-01-16 00:47:00,28.0,14.8,-100.00,SSE,164,4.9,4.9,57,0.00,,,0.00,VWS V14.01,2013-01-16 08:47:00,
2013-01-16 00:52:00,27.9,14.6,-100.00,South,186,3.1,5.4,57,0.00,,,0.00,VWS V14.01,2013-01-16 08:52:00,
2013-01-16 00:57:00,27.7,14.9,-100.00,SSW,195,3.1,3.1,58,0.00,,,0.00,VWS V14.01,2013-01-16 08:57:00,
2013-01-16 01:02:00,27.5,14.7,-100.00,South,169,2.7,3.1,58,0.00,,,0.00,VWS V14.01,2013-01-16 09:02:00,
2013-01-16 01:07:00,27.1,14.7,-100.00,South,183,2.7,3.6,59,0.00,,,0.00,VWS V14.01,2013-01-16 09:07:00,
2013-01-16 01:12:00,27.0,14.6,-100.00,South,177,2.7,3.6,59,0.00,,,0.00,VWS V14.01,2013-01-16 09:12:00,
2013-01-16 01:17:00,27.0,14.6,-100.00,SE,145,3.1,4.0,59,0.00,,,0.00,VWS V14.01,2013-01-16 09:17:00,
2013-01-16 01:22:00,27.0,14.6,-100.00,SSE,165,3.6,4.0,59,0.00,,,0.00,VWS V14.01,2013-01-16 09:22:00,
2013-01-16 01:27:00,27.1,14.7,-100.00,SSE,167,3.1,4.0,59,0.00,,,0.00,VWS V14.01,2013-01-16 09:27:00,
2013-01-16 01:32:00,27.5,15.1,-100.00,South,177,4.5,4.9,59,0.00,,,0.00,VWS V14.01,2013-01-16 09:32:00,
2013-01-16 01:37:00,27.5,14.7,-100.00,SSW,195,4.9,5.8,58,0.00,,,0.00,VWS V14.01,2013-01-16 09:37:00,
2013-01-16 01:42:00,27.3,14.5,-100.00,SSW,192,5.4,6.3,58,0.00,,,0.00,VWS V14.01,2013-01-16 09:42:00,
2013-01-16 01:47:00,27.1,14.3,-100.00,South,189,4.0,4.0,58,0.00,,,0.00,VWS V14.01,2013-01-16 09:47:00,
2013-01-16 01:52:00,27.0,14.2,-100.00,South,185,2.7,4.0,58,0.00,,,0.00,VWS V14.01,2013-01-16 09:52:00,
2013-01-16 01:57:00,27.0,14.6,-100.00,SSW,195,3.1,3.6,59,0.00,,,0.00,VWS V14.01,2013-01-16 09:57:00,
2013-01-16 02:02:00,26.6,14.2,-100.00,South,181,4.0,4.0,59,0.00,,,0.00,VWS V14.01,2013-01-16 10:02:00,
2013-01-16 02:07:00,26.6,14.6,-100.00,South,179,3.6,3.6,60,0.00,,,0.00,VWS V14.01,2013-01-16 10:07:00,
2013-01-16 02:12:00,26.6,14.6,-100.00,South,184,2.7,3.6,60,0.00,,,0.00,VWS V14.01,2013-01-16 10:12:00,
2013-01-16 02:17:00,26.4,14.4,-100.00,SSW,195,3.1,4.0,60,0.00,,,0.00,VWS V14.01,2013-01-16 10:17:00,
2013-01-16 02:22:00,26.4,14.1,-100.00,South,180,3.1,3.6,59,0.00,,,0.00,VWS V14.01,2013-01-16 10:22:00,
2013-01-16 02:27:00,26.4,14.1,-100.00,SSE,168,5.8,5.8,59,0.00,,,0.00,VWS V14.01,2013-01-16 10:27:00,
2013-01-16 02:32:00,26.6,13.8,-100.00,SE,137,4.0,4.0,58,0.00,,,0.00,VWS V14.01,2013-01-16 10:32:00,
2013-01-16 02:37:00,26.4,13.7,-100.00,South,178,4.9,4.9,58,0.00,,,0.00,VWS V14.01,2013-01-16 10:37:00,
2013-01-16 02:42:00,26.2,13.9,-100.00,South,191,2.7,2.7,59,0.00,,,0.00,VWS V14.01,2013-01-16 10:42:00,
2013-01-16 02:47:00,26.1,13.7,-100.00,SSW,193,2.7,3.6,59,0.00,,,0.00,VWS V14.01,2013-01-16 10:47:00,
2013-01-16 02:52:00,25.9,13.5,-100.00,South,190,2.7,3.1,59,0.00,,,0.00,VWS V14.01,2013-01-16 10:52:00,
2013-01-16 02:57:00,25.7,13.8,-100.00,SW,231,3.1,3.1,60,0.00,,,0.00,VWS V14.01,2013-01-16 10:57:00,
2013-01-16 03:02:00,25.5,13.6,-100.00,South,180,3.6,3.6,60,0.00,,,0.00,VWS V14.01,2013-01-16 11:02:00,
2013-01-16 03:07:00,25.5,14.0,-100.00,SSW,196,2.7,4.0,61,0.00,,,0.00,VWS V14.01,2013-01-16 11:07:00,
2013-01-16 03:12:00,25.7,14.1,-100.00,South,184,3.1,3.6,61,0.00,,,0.00,VWS V14.01,2013-01-16 11:12:00,
2013-01-16 03:17:00,25.7,14.1,-100.00,SSW,199,2.7,3.1,61,0.00,,,0.00,VWS V14.01,2013-01-16 11:17:00,
2013-01-16 03:22:00,25.5,14.0,-100.00,South,187,3.1,3.6,61,0.00,,,0.00,VWS V14.01,2013-01-16 11:22:00,
2013-01-16 03:27:00,25.3,13.8,-100.00,South,190,2.7,3.6,61,0.00,,,0.00,VWS V14.01,2013-01-16 11:27:00,
2013-01-16 03:32:00,25.3,13.8,-100.00,SSE,168,3.1,3.1,61,0.00,,,0.00,VWS V14.01,2013-01-16 11:32:00,
2013-01-16 03:37:00,25.3,13.8,-100.00,SSW,208,2.2,2.7,61,0.00,,,0.00,VWS V14.01,2013-01-16 11:37:00,
2013-01-16 03:42:00,25.2,13.6,-100.00,SW,228,0.0,0.0,61,0.00,,,0.00,VWS V14.01,2013-01-16 11:42:00,
2013-01-16 03:47:00,25.0,13.4,-100.00,SW,223,3.1,3.1,61,0.00,,,0.00,VWS V14.01,2013-01-16 11:47:00,
2013-01-16 03:52:00,25.2,13.6,-100.00,SW,216,2.2,3.1,61,0.00,,,0.00,VWS V14.01,2013-01-16 11:52:00,
2013-01-16 03:57:00,25.2,13.2,-100.00,South,185,4.0,4.9,60,0.00,,,0.00,VWS V14.01,2013-01-16 11:57:00,
2013-01-16 04:02:00,25.3,13.0,-100.00,South,178,5.8,5.8,59,0.00,,,0.00,VWS V14.01,2013-01-16 12:02:00,
2013-01-16 04:07:00,25.3,13.0,-100.00,SSE,154,3.1,4.9,59,0.00,,,0.00,VWS V14.01,2013-01-16 12:07:00,
2013-01-16 04:12:00,25.2,12.9,-100.00,South,180,3.6,5.8,59,0.00,,,0.00,VWS V14.01,2013-01-16 12:12:00,
2013-01-16 04:17:00,25.2,12.9,-100.00,South,170,3.6,4.9,59,0.00,,,0.00,VWS V14.01,2013-01-16 12:17:00,
2013-01-16 04:22:00,25.3,13.0,-100.00,South,176,2.7,2.7,59,0.00,,,0.00,VWS V14.01,2013-01-16 12:22:00,
2013-01-16 04:27:00,25.3,13.0,-100.00,South,184,4.0,4.0,59,0.00,,,0.00,VWS V14.01,2013-01-16 12:27:00,
2013-01-16 04:32:00,25.3,13.0,-100.00,SSW,195,4.0,4.0,59,0.00,,,0.00,VWS V14.01,2013-01-16 12:32:00,
2013-01-16 04:37:00,25.3,13.0,-100.00,South,176,2.7,4.0,59,0.00,,,0.00,VWS V14.01,2013-01-16 12:37:00,
2013-01-16 04:42:00,25.3,12.6,-100.00,SSW,212,3.6,4.9,58,0.00,,,0.00,VWS V14.01,2013-01-16 12:42:00,
2013-01-16 04:47:00,25.5,12.8,-100.00,South,175,3.1,3.1,58,0.00,,,0.00,VWS V14.01,2013-01-16 12:47:00,
2013-01-16 04:52:00,25.5,12.4,-100.00,South,178,3.6,4.0,57,0.00,,,0.00,VWS V14.01,2013-01-16 12:52:00,
2013-01-16 04:57:00,25.5,12.4,-100.00,South,178,2.7,3.1,57,0.00,,,0.00,VWS V14.01,2013-01-16 12:57:00,
2013-01-16 05:02:00,25.5,12.0,-100.00,South,180,3.1,3.1,56,0.00,,,0.00,VWS V14.01,2013-01-16 13:02:00,
2013-01-16 05:07:00,25.5,12.0,-100.00,SE,140,5.4,5.4,56,0.00,,,0.00,VWS V14.01,2013-01-16 13:07:00,
2013-01-16 05:12:00,25.5,12.0,-100.00,South,187,3.6,5.4,56,0.00,,,0.00,VWS V14.01,2013-01-16 13:12:00,
2013-01-16 05:17:00,25.5,11.6,-100.00,South,175,7.6,7.6,55,0.00,,,0.00,VWS V14.01,2013-01-16 13:17:00,
2013-01-16 05:22:00,25.5,11.6,-100.00,South,180,3.6,3.6,55,0.00,,,0.00,VWS V14.01,2013-01-16 13:22:00,
2013-01-16 05:27:00,25.5,11.6,-100.00,SSE,163,3.1,3.1,55,0.00,,,0.00,VWS V14.01,2013-01-16 13:27:00,
2013-01-16 05:32:00,25.5,11.6,-100.00,South,181,6.3,6.3,55,0.00,,,0.00,VWS V14.01,2013-01-16 13:32:00,
2013-01-16 05:37:00,25.5,11.6,-100.00,SE,137,3.1,3.1,55,0.00,,,0.00,VWS V14.01,2013-01-16 13:37:00,
2013-01-16 05:42:00,25.3,11.4,-100.00,SSW,200,4.0,6.3,55,0.00,,,0.00,VWS V14.01,2013-01-16 13:42:00,
2013-01-16 05:47:00,25.5,11.6,-100.00,SSW,198,4.0,6.3,55,0.00,,,0.00,VWS V14.01,2013-01-16 13:47:00,
2013-01-16 05:52:00,25.5,11.2,-100.00,South,187,3.1,3.6,54,0.00,,,0.00,VWS V14.01,2013-01-16 13:52:00,
2013-01-16 05:57:00,25.3,11.0,-100.00,South,187,5.4,5.4,54,0.00,,,0.00,VWS V14.01,2013-01-16 13:57:00,
2013-01-16 06:02:00,25.3,11.0,-100.00,SSW,196,5.4,5.4,54,0.00,,,0.00,VWS V14.01,2013-01-16 14:02:00,
2013-01-16 06:07:00,25.2,10.9,-100.00,SE,140,8.1,8.1,54,0.00,,,0.00,VWS V14.01,2013-01-16 14:07:00,
2013-01-16 06:12:00,25.0,10.7,-100.00,South,182,2.7,6.3,54,0.00,,,0.00,VWS V14.01,2013-01-16 14:12:00,
2013-01-16 06:17:00,25.0,10.7,-100.00,South,171,3.6,3.6,54,0.00,,,0.00,VWS V14.01,2013-01-16 14:17:00,
2013-01-16 06:22:00,24.6,10.8,-100.00,SSE,155,4.0,4.0,55,0.00,,,0.00,VWS V14.01,2013-01-16 14:22:00,
2013-01-16 06:27:00,24.6,11.2,-100.00,SSW,198,3.1,3.1,56,0.00,,,0.00,VWS V14.01,2013-01-16 14:27:00,
2013-01-16 06:32:00,24.4,11.0,-100.00,South,185,3.1,3.6,56,0.00,,,0.00,VWS V14.01,2013-01-16 14:32:00,
2013-01-16 06:37:00,24.3,10.8,-100.00,South,190,3.1,3.1,56,0.00,,,0.00,VWS V14.01,2013-01-16 14:37:00,
2013-01-16 06:42:00,24.3,10.8,-100.00,SSE,147,5.8,5.8,56,0.00,,,0.00,VWS V14.01,2013-01-16 14:42:00,
2013-01-16 06:47:00,24.3,10.8,-100.00,South,189,8.7,8.7,56,0.00,,,0.00,VWS V14.01,2013-01-16 14:47:00,
2013-01-16 06:52:00,24.3,10.8,-100.00,SSW,195,4.0,4.0,56,0.00,,,0.00,VWS V14.01,2013-01-16 14:52:00,
2013-01-16 06:57:00,24.3,10.8,-100.00,SSW,211,3.1,3.1,56,0.00,,,0.00,VWS V14.01,2013-01-16 14:57:00,
2013-01-16 07:02:00,24.1,10.7,-100.00,South,187,3.6,3.6,56,0.00,,,0.00,VWS V14.01,2013-01-16 15:02:00,
2013-01-16 07:07:00,24.1,10.7,-100.00,South,177,4.0,4.0,56,0.00,,,0.00,VWS V14.01,2013-01-16 15:07:00,
2013-01-16 07:12:00,24.1,10.7,-100.00,SSW,207,3.1,3.1,56,0.00,,,0.00,VWS V14.01,2013-01-16 15:12:00,
2013-01-16 07:17:00,23.9,10.5,-100.00,SSW,201,2.2,4.9,56,0.00,,,0.00,VWS V14.01,2013-01-16 15:17:00,
2013-01-16 07:22:00,23.5,10.2,-100.00,SSW,196,0.0,0.0,56,0.00,,,0.00,VWS V14.01,2013-01-16 15:22:00,
2013-01-16 07:27:00,23.4,10.4,-100.00,WSW,243,0.0,0.0,57,0.00,,,0.00,VWS V14.01,2013-01-16 15:27:00,
2013-01-16 07:31:00,23.4,10.4,-100.00,SW,215,3.1,3.6,57,0.00,,,0.00,VWS V14.01,2013-01-16 15:31:00,
2013-01-16 07:36:00,23.4,10.8,-100.00,South,183,3.1,3.1,58,0.00,,,0.00,VWS V14.01,2013-01-16 15:36:00,
2013-01-16 07:41:00,23.2,10.6,-100.00,South,182,4.0,4.0,58,0.00,,,0.00,VWS V14.01,2013-01-16 15:41:00,
2013-01-16 07:46:00,23.4,10.4,-100.00,SSW,195,3.6,5.8,57,0.00,,,0.00,VWS V14.01,2013-01-16 15:46:00,
2013-01-16 07:51:00,23.4,10.4,-100.00,South,175,3.6,3.6,57,0.00,,,0.00,VWS V14.01,2013-01-16 15:51:00,
2013-01-16 07:56:00,23.5,10.6,-100.00,South,184,3.6,6.3,57,0.00,,,0.00,VWS V14.01,2013-01-16 15:56:00,
2013-01-16 08:01:00,23.7,10.3,-100.00,SSW,200,3.6,8.3,56,0.00,,,0.00,VWS V14.01,2013-01-16 16:01:00,
2013-01-16 08:06:00,24.1,10.7,-100.00,SSW,209,4.0,6.7,56,0.00,,,0.00,VWS V14.01,2013-01-16 16:06:00,
2013-01-16 08:11:00,24.3,10.4,-100.00,SE,141,6.3,7.2,55,0.00,,,0.00,VWS V14.01,2013-01-16 16:11:00,
2013-01-16 08:16:00,24.4,10.6,-100.00,South,174,4.0,4.0,55,0.00,,,0.00,VWS V14.01,2013-01-16 16:16:00,
2013-01-16 08:21:00,24.8,10.5,-100.00,South,182,8.1,8.1,54,0.00,,,0.00,VWS V14.01,2013-01-16 16:21:00,
2013-01-16 08:26:00,25.2,10.4,-100.00,SSE,166,6.3,6.3,53,0.00,,,0.00,VWS V14.01,2013-01-16 16:26:00,
2013-01-16 08:31:00,25.3,10.6,-100.00,South,170,3.6,8.3,53,0.00,,,0.00,VWS V14.01,2013-01-16 16:31:00,
2013-01-16 08:36:00,25.5,10.8,-100.00,SSE,166,4.0,6.3,53,0.00,,,0.00,VWS V14.01,2013-01-16 16:36:00,
2013-01-16 08:41:00,25.9,11.1,-100.00,SSE,168,5.8,5.8,53,0.00,,,0.00,VWS V14.01,2013-01-16 16:41:00,
2013-01-16 08:46:00,26.1,10.9,-100.00,South,180,3.6,4.0,52,0.00,,,0.00,VWS V14.01,2013-01-16 16:46:00,
2013-01-16 08:51:00,26.2,11.0,-100.00,SSW,199,2.7,4.0,52,0.00,,,0.00,VWS V14.01,2013-01-16 16:51:00,
2013-01-16 08:56:00,26.4,11.2,-100.00,SW,225,3.6,5.4,52,0.00,,,0.00,VWS V14.01,2013-01-16 16:56:00,
2013-01-16 09:01:00,26.8,11.1,-100.00,SE,145,3.6,5.8,51,0.00,,,0.00,VWS V14.01,2013-01-16 17:01:00,
2013-01-16 09:06:00,27.0,11.3,-100.00,SSE,158,4.0,4.0,51,0.00,,,0.00,VWS V14.01,2013-01-16 17:06:00,
2013-01-16 09:11:00,27.5,11.3,-100.00,South,180,6.3,6.3,50,0.00,,,0.00,VWS V14.01,2013-01-16 17:11:00,
2013-01-16 09:16:00,27.9,11.6,-100.00,SW,223,3.6,3.6,50,0.00,,,0.00,VWS V14.01,2013-01-16 17:16:00,
2013-01-16 09:21:00,28.0,11.4,-100.00,SSE,159,3.6,5.8,49,0.00,,,0.00,VWS V14.01,2013-01-16 17:21:00,
2013-01-16 09:26:00,28.6,11.9,-100.00,SSE,164,3.6,4.0,49,0.00,,,0.00,VWS V14.01,2013-01-16 17:26:00,
2013-01-16 09:31:00,28.9,11.7,-100.00,SSE,165,4.0,8.3,48,0.00,,,0.00,VWS V14.01,2013-01-16 17:31:00,
2013-01-16 09:36:00,29.5,12.2,-100.00,South,173,4.0,7.6,48,0.00,,,0.00,VWS V14.01,2013-01-16 17:36:00,
2013-01-16 09:41:00,29.8,12.6,-100.00,SSW,196,4.0,4.9,48,0.00,,,0.00,VWS V14.01,2013-01-16 17:41:00,
2013-01-16 09:46:00,30.2,12.9,-100.00,SSE,158,4.0,4.0,48,0.00,,,0.00,VWS V14.01,2013-01-16 17:46:00,
2013-01-16 09:51:00,30.6,12.7,-100.00,SSE,159,7.6,7.6,47,0.00,,,0.00,VWS V14.01,2013-01-16 17:51:00,
2013-01-16 09:56:00,31.1,13.2,-100.00,South,172,8.3,8.3,47,0.00,,,0.00,VWS V14.01,2013-01-16 17:56:00,
2013-01-16 10:01:00,31.8,13.4,-100.00,SSE,153,6.3,8.1,46,0.00,,,0.00,VWS V14.01,2013-01-16 18:01:00,
2013-01-16 10:06:00,32.5,13.6,-100.00,SSE,163,4.0,6.7,45,0.00,,,0.00,VWS V14.01,2013-01-16 18:06:00,
2013-01-16 10:11:00,32.9,13.9,-100.00,SE,145,3.1,4.9,45,0.00,,,0.00,VWS V14.01,2013-01-16 18:11:00,
2013-01-16 10:16:00,33.4,13.9,-100.00,SSW,211,3.6,4.5,44,0.00,,,0.00,VWS V14.01,2013-01-16 18:16:00,
2013-01-16 10:21:00,34.0,14.4,-100.00,SW,218,3.1,4.9,44,0.00,,,0.00,VWS V14.01,2013-01-16 18:21:00,
2013-01-16 10:26:00,34.3,14.7,-100.00,SSE,162,3.6,5.4,44,0.00,,,0.00,VWS V14.01,2013-01-16 18:26:00,
2013-01-16 10:31:00,34.9,14.7,-100.00,SSW,194,3.6,6.3,43,0.00,,,0.00,VWS V14.01,2013-01-16 18:31:00,
2013-01-16 10:36:00,35.4,15.2,-100.00,SE,129,3.1,5.4,43,0.00,,,0.00,VWS V14.01,2013-01-16 18:36:00,
2013-01-16 10:41:00,35.8,15.5,-100.00,South,189,3.6,4.9,43,0.00,,,0.00,VWS V14.01,2013-01-16 18:41:00,
2013-01-16 10:46:00,36.5,15.6,-100.00,South,176,5.8,6.3,42,0.00,,,0.00,VWS V14.01,2013-01-16 18:46:00,
2013-01-16 10:51:00,37.2,15.7,-100.00,South,180,5.4,5.8,41,0.00,,,0.00,VWS V14.01,2013-01-16 18:51:00,
2013-01-16 10:56:00,37.9,16.4,-100.00,SSE,168,2.7,3.6,41,0.00,,,0.00,VWS V14.01,2013-01-16 18:56:00,
2013-01-16 11:01:00,38.5,16.8,-100.00,South,182,3.6,4.0,41,0.00,,,0.00,VWS V14.01,2013-01-16 19:01:00,
2013-01-16 11:06:00,39.0,17.3,-100.00,SSW,200,4.0,9.6,41,0.00,,,0.00,VWS V14.01,2013-01-16 19:06:00,
2013-01-16 11:11:00,39.6,17.2,-100.00,SSW,196,4.9,4.9,40,0.00,,,0.00,VWS V14.01,2013-01-16 19:11:00,
2013-01-16 11:16:00,39.9,17.6,-100.00,South,189,4.0,6.3,40,0.00,,,0.00,VWS V14.01,2013-01-16 19:16:00,
2013-01-16 11:21:00,40.3,17.3,-100.00,SW,225,4.0,5.8,39,0.00,,,0.00,VWS V14.01,2013-01-16 19:21:00,
2013-01-16 11:26:00,40.6,17.6,-100.00,SSE,154,2.7,6.3,39,0.00,,,0.00,VWS V14.01,2013-01-16 19:26:00,
2013-01-16 11:31:00,41.0,18.0,-100.00,SSW,211,3.1,3.6,39,0.00,,,0.00,VWS V14.01,2013-01-16 19:31:00,
2013-01-16 11:36:00,41.2,18.1,-100.00,South,173,5.4,5.4,39,0.00,,,0.00,VWS V14.01,2013-01-16 19:36:00,
2013-01-16 11:41:00,41.7,18.0,-100.00,South,187,3.1,5.4,38,0.00,,,0.00,VWS V14.01,2013-01-16 19:41:00,
2013-01-16 11:46:00,42.4,18.6,-100.00,SSE,168,3.6,6.3,38,0.00,,,0.00,VWS V14.01,2013-01-16 19:46:00,
2013-01-16 11:51:00,43.0,19.1,-100.00,South,186,3.1,4.9,38,0.00,,,0.00,VWS V14.01,2013-01-16 19:51:00,
2013-01-16 11:56:00,43.3,18.8,-100.00,South,173,5.4,5.8,37,0.00,,,0.00,VWS V14.01,2013-01-16 19:56:00,
2013-01-16 12:01:00,43.5,18.4,-100.00,South,171,5.8,7.6,36,0.00,,,0.00,VWS V14.01,2013-01-16 20:01:00,
2013-01-16 12:06:00,43.7,18.5,-100.00,South,170,4.0,4.9,36,0.00,,,0.00,VWS V14.01,2013-01-16 20:06:00,
2013-01-16 12:11:00,43.9,19.3,-100.00,South,183,2.7,5.8,37,0.00,,,0.00,VWS V14.01,2013-01-16 20:11:00,
2013-01-16 12:16:00,44.4,19.8,-100.00,South,175,3.6,4.0,37,0.00,,,0.00,VWS V14.01,2013-01-16 20:16:00,
2013-01-16 12:21:00,44.8,19.5,-100.00,South,175,4.0,6.7,36,0.00,,,0.00,VWS V14.01,2013-01-16 20:21:00,
2013-01-16 12:26:00,45.1,19.1,-100.00,SSE,153,3.6,5.8,35,0.00,,,0.00,VWS V14.01,2013-01-16 20:26:00,
2013-01-16 12:31:00,45.5,19.5,-100.00,SSE,160,6.3,6.3,35,0.00,,,0.00,VWS V14.01,2013-01-16 20:31:00,
2013-01-16 12:36:00,45.5,19.5,-100.00,SSW,195,4.0,5.8,35,0.00,,,0.00,VWS V14.01,2013-01-16 20:36:00,
2013-01-16 12:41:00,45.9,19.1,-100.00,SSE,162,3.1,6.3,34,0.00,,,0.00,VWS V14.01,2013-01-16 20:41:00,
2013-01-16 12:46:00,46.0,18.6,-100.00,SSE,150,4.9,7.6,33,0.00,,,0.00,VWS V14.01,2013-01-16 20:46:00,
2013-01-16 12:51:00,46.2,18.7,-100.00,SSE,161,2.7,3.6,33,0.00,,,0.00,VWS V14.01,2013-01-16 20:51:00,
2013-01-16 12:56:00,46.6,18.3,-100.00,South,179,4.0,7.6,32,0.00,,,0.00,VWS V14.01,2013-01-16 20:56:00,
2013-01-16 13:01:00,46.8,18.5,-100.00,South,186,3.1,3.1,32,0.00,,,0.00,VWS V14.01,2013-01-16 21:01:00,
2013-01-16 13:06:00,46.8,18.5,-100.00,SSE,165,2.7,3.6,32,0.00,,,0.00,VWS V14.01,2013-01-16 21:06:00,
2013-01-16 13:11:00,46.9,18.6,-100.00,SSW,207,3.6,4.9,32,0.00,,,0.00,VWS V14.01,2013-01-16 21:11:00,
2013-01-16 13:16:00,47.3,19.7,-100.00,South,171,3.1,5.4,33,0.00,,,0.00,VWS V14.01,2013-01-16 21:16:00,
2013-01-16 13:21:00,47.7,19.3,-100.00,SSW,207,4.0,5.4,32,0.00,,,0.00,VWS V14.01,2013-01-16 21:21:00,
2013-01-16 13:26:00,47.7,19.3,-100.00,South,176,4.0,5.8,32,0.00,,,0.00,VWS V14.01,2013-01-16 21:26:00,
2013-01-16 13:31:00,47.7,19.3,-100.00,South,178,3.1,8.1,32,0.00,,,0.00,VWS V14.01,2013-01-16 21:31:00,
2013-01-16 13:36:00,48.0,18.8,-100.00,SSE,164,4.9,5.8,31,0.00,,,0.00,VWS V14.01,2013-01-16 21:36:00,
2013-01-16 13:41:00,48.6,19.3,-100.00,SSE,160,4.0,5.4,31,0.00,,,0.00,VWS V14.01,2013-01-16 21:41:00,
2013-01-16 13:46:00,48.9,19.6,-100.00,SSW,197,3.6,4.9,31,0.00,,,0.00,VWS V14.01,2013-01-16 21:46:00,
2013-01-16 13:51:00,49.1,19.0,-100.00,South,184,5.8,6.3,30,0.00,,,0.00,VWS V14.01,2013-01-16 21:51:00,
2013-01-16 13:56:00,49.3,19.9,-100.00,SSE,168,3.6,4.9,31,0.00,,,0.00,VWS V14.01,2013-01-16 21:56:00,
2013-01-16 14:01:00,49.8,18.9,-100.00,SSE,165,3.1,3.1,29,0.00,,,0.00,VWS V14.01,2013-01-16 22:01:00,
2013-01-16 14:06:00,49.8,18.9,-100.00,SSE,168,5.4,5.4,29,0.00,,,0.00,VWS V14.01,2013-01-16 22:06:00,
2013-01-16 14:11:00,49.8,19.6,-100.00,South,183,3.1,3.6,30,0.00,,,0.00,VWS V14.01,2013-01-16 22:11:00,
2013-01-16 14:16:00,49.6,18.7,-100.00,South,178,4.0,5.8,29,0.00,,,0.00,VWS V14.01,2013-01-16 22:16:00,
2013-01-16 14:21:00,49.5,19.3,-100.00,SSW,192,3.6,3.6,30,0.00,,,0.00,VWS V14.01,2013-01-16 22:21:00,
2013-01-16 14:26:00,49.3,19.2,-100.00,SW,216,2.7,3.6,30,0.00,,,0.00,VWS V14.01,2013-01-16 22:26:00,
2013-01-16 14:31:00,49.3,19.2,-100.00,SW,214,4.0,5.8,30,0.00,,,0.00,VWS V14.01,2013-01-16 22:31:00,
2013-01-16 14:36:00,49.5,18.5,-100.00,SSE,165,2.7,4.0,29,0.00,,,0.00,VWS V14.01,2013-01-16 22:36:00,
2013-01-16 14:41:00,49.6,18.7,-100.00,SSE,165,3.1,5.4,29,0.00,,,0.00,VWS V14.01,2013-01-16 22:41:00,
2013-01-16 14:46:00,49.8,18.9,-100.00,South,184,2.2,2.7,29,0.00,,,0.00,VWS V14.01,2013-01-16 22:46:00,
2013-01-16 14:51:00,49.6,18.7,-100.00,SSE,149,3.6,3.6,29,0.00,,,0.00,VWS V14.01,2013-01-16 22:51:00,
2013-01-16 14:56:00,49.6,18.7,-100.00,South,169,2.2,3.1,29,0.00,,,0.00,VWS V14.01,2013-01-16 22:56:00,
2013-01-16 15:01:00,49.6,18.7,-100.00,SSE,160,3.1,5.4,29,0.00,,,0.00,VWS V14.01,2013-01-16 23:01:00,
2013-01-16 15:06:00,49.6,18.7,-100.00,South,179,2.7,3.1,29,0.00,,,0.00,VWS V14.01,2013-01-16 23:06:00,
2013-01-16 15:11:00,49.5,18.5,-100.00,SSW,212,3.6,4.0,29,0.00,,,0.00,VWS V14.01,2013-01-16 23:11:00,
2013-01-16 15:16:00,49.3,18.4,-100.00,South,173,3.6,4.9,29,0.00,,,0.00,VWS V14.01,2013-01-16 23:16:00,
2013-01-16 15:21:00,49.3,18.4,-100.00,SSW,210,3.6,3.6,29,0.00,,,0.00,VWS V14.01,2013-01-16 23:21:00,
2013-01-16 15:26:00,49.3,18.4,-100.00,SSE,159,3.1,4.0,29,0.00,,,0.00,VWS V14.01,2013-01-16 23:26:00,
2013-01-16 15:31:00,48.9,18.1,-100.00,SW,224,2.7,2.7,29,0.00,,,0.00,VWS V14.01,2013-01-16 23:31:00,
2013-01-16 15:36:00,48.6,18.5,-100.00,South,174,4.9,4.9,30,0.00,,,0.00,VWS V14.01,2013-01-16 23:36:00,
2013-01-16 15:41:00,48.4,18.4,-100.00,SSE,168,0.0,0.0,30,0.00,,,0.00,VWS V14.01,2013-01-16 23:41:00,
2013-01-16 15:46:00,48.4,18.4,-100.00,SW,216,2.2,3.6,30,0.00,,,0.00,VWS V14.01,2013-01-16 23:46:00,
2013-01-16 15:51:00,48.2,18.2,-100.00,South,174,2.2,4.0,30,0.00,,,0.00,VWS V14.01,2013-01-16 23:51:00,
2013-01-16 15:56:00,48.0,18.1,-100.00,SE,124,0.0,0.0,30,0.00,,,0.00,VWS V14.01,2013-01-16 23:56:00,
2013-01-16 16:01:00,47.8,17.9,-100.00,South,181,3.1,3.1,30,0.00,,,0.00,VWS V14.01,2013-01-17 00:01:00,
2013-01-16 16:06:00,47.3,17.5,-100.00,SSE,168,0.0,0.0,30,0.00,,,0.00,VWS V14.01,2013-01-17 00:06:00,
2013-01-16 16:11:00,46.9,17.1,-100.00,South,171,0.0,0.0,30,0.00,,,0.00,VWS V14.01,2013-01-17 00:11:00,
2013-01-16 16:16:00,46.4,17.4,-100.00,South,171,0.0,0.0,31,0.00,,,0.00,VWS V14.01,2013-01-17 00:16:00,
2013-01-16 16:21:00,46.0,17.1,-100.00,South,171,0.0,0.0,31,0.00,,,0.00,VWS V14.01,2013-01-17 00:21:00,
2013-01-16 16:26:00,45.9,17.0,-100.00,South,171,0.0,0.0,31,0.00,,,0.00,VWS V14.01,2013-01-17 00:26:00,
2013-01-16 16:31:00,45.0,16.9,-100.00,South,171,0.0,0.0,32,0.00,,,0.00,VWS V14.01,2013-01-17 00:31:00,
2013-01-16 16:36:00,44.2,16.3,-100.00,South,171,0.0,0.0,32,0.00,,,0.00,VWS V14.01,2013-01-17 00:36:00,
2013-01-16 16:41:00,43.5,15.6,-100.00,South,171,0.0,0.0,32,0.00,,,0.00,VWS V14.01,2013-01-17 00:41:00,
2013-01-16 16:46:00,42.6,15.6,-100.00,South,171,0.0,0.0,33,0.00,,,0.00,VWS V14.01,2013-01-17 00:46:00,
2013-01-16 16:51:00,42.1,15.1,-100.00,South,171,0.0,0.0,33,0.00,,,0.00,VWS V14.01,2013-01-17 00:51:00,
2013-01-16 16:56:00,41.2,15.0,-100.00,South,171,0.0,0.0,34,0.00,,,0.00,VWS V14.01,2013-01-17 00:56:00,
2013-01-16 17:01:00,40.6,15.1,-100.00,South,171,0.0,0.0,35,0.00,,,0.00,VWS V14.01,2013-01-17 01:01:00,
2013-01-16 17:06:00,40.3,14.8,-100.00,South,171,0.0,0.0,35,0.00,,,0.00,VWS V14.01,2013-01-17 01:06:00,
2013-01-16 17:11:00,39.7,15.0,-100.00,South,171,0.0,0.0,36,0.00,,,0.00,VWS V14.01,2013-01-17 01:11:00,
2013-01-16 17:16:00,39.0,15.6,-100.00,South,171,0.0,0.0,38,0.00,,,0.00,VWS V14.01,2013-01-17 01:16:00,
2013-01-16 17:21:00,38.5,15.7,-100.00,South,171,0.0,0.0,39,0.00,,,0.00,VWS V14.01,2013-01-17 01:21:00,
2013-01-16 17:26:00,38.3,15.5,-100.00,South,171,0.0,0.0,39,0.00,,,0.00,VWS V14.01,2013-01-17 01:26:00,
2013-01-16 17:31:00,37.9,15.8,-100.00,South,171,0.0,0.0,40,0.00,,,0.00,VWS V14.01,2013-01-17 01:31:00,
2013-01-16 17:36:00,37.6,16.0,-100.00,South,171,0.0,0.0,41,0.00,,,0.00,VWS V14.01,2013-01-17 01:36:00,
2013-01-16 17:41:00,37.0,16.1,-100.00,South,171,0.0,0.0,42,0.00,,,0.00,VWS V14.01,2013-01-17 01:41:00,
2013-01-16 17:46:00,36.5,16.1,-100.00,South,171,0.0,0.0,43,0.00,,,0.00,VWS V14.01,2013-01-17 01:46:00,
2013-01-16 17:51:00,36.0,15.6,-100.00,South,171,0.0,0.0,43,0.00,,,0.00,VWS V14.01,2013-01-17 01:51:00,
2013-01-16 17:56:00,35.6,15.9,-100.00,South,171,0.0,0.0,44,0.00,,,0.00,VWS V14.01,2013-01-17 01:56:00,
2013-01-16 18:01:00,35.2,16.0,-100.00,South,171,0.0,0.0,45,0.00,,,0.00,VWS V14.01,2013-01-17 02:01:00,
2013-01-16 18:06:00,35.1,17.4,-100.00,South,171,0.0,0.0,48,0.00,,,0.00,VWS V14.01,2013-01-17 02:06:00,
2013-01-16 18:11:00,35.1,16.9,-100.00,South,171,0.0,0.0,47,0.00,,,0.00,VWS V14.01,2013-01-17 02:11:00,
2013-01-16 18:16:00,35.1,16.9,-100.00,South,171,0.0,0.0,47,0.00,,,0.00,VWS V14.01,2013-01-17 02:16:00,
2013-01-16 18:21:00,34.9,17.2,-100.00,South,171,0.0,0.0,48,0.00,,,0.00,VWS V14.01,2013-01-17 02:21:00,
2013-01-16 18:26:00,34.7,17.5,-100.00,South,171,0.0,0.0,49,0.00,,,0.00,VWS V14.01,2013-01-17 02:26:00,
2013-01-16 18:31:00,34.5,18.3,-100.00,South,171,0.0,0.0,51,0.00,,,0.00,VWS V14.01,2013-01-17 02:31:00,
2013-01-16 18:36:00,34.2,17.9,-100.00,South,171,0.0,0.0,51,0.00,,,0.00,VWS V14.01,2013-01-17 02:36:00,
2013-01-16 18:41:00,34.0,17.3,-100.00,South,171,0.0,0.0,50,0.00,,,0.00,VWS V14.01,2013-01-17 02:41:00,
2013-01-16 18:46:00,33.6,17.4,-100.00,South,171,0.0,0.0,51,0.00,,,0.00,VWS V14.01,2013-01-17 02:46:00,
2013-01-16 18:51:00,33.3,17.1,-100.00,South,171,0.0,0.0,51,0.00,,,0.00,VWS V14.01,2013-01-17 02:51:00,
2013-01-16 18:56:00,32.7,16.6,-100.00,South,171,0.0,0.0,51,0.00,,,0.00,VWS V14.01,2013-01-17 02:56:00,
2013-01-16 19:01:00,32.4,16.7,-100.00,South,171,0.0,0.0,52,0.00,,,0.00,VWS V14.01,2013-01-17 03:01:00,
2013-01-16 19:06:00,32.2,16.5,-100.00,South,171,0.0,0.0,52,0.00,,,0.00,VWS V14.01,2013-01-17 03:06:00,
2013-01-16 19:11:00,32.0,16.4,-100.00,South,171,0.0,0.0,52,0.00,,,0.00,VWS V14.01,2013-01-17 03:11:00,
2013-01-16 19:16:00,31.6,16.9,-100.00,South,171,0.0,0.0,54,0.00,,,0.00,VWS V14.01,2013-01-17 03:16:00,
2013-01-16 19:21:00,31.5,18.0,-100.00,SSE,164,0.0,0.0,57,0.00,,,0.00,VWS V14.01,2013-01-17 03:21:00,
2013-01-16 19:26:00,32.2,17.8,-100.00,South,175,0.0,0.0,55,0.00,,,0.00,VWS V14.01,2013-01-17 03:26:00,
2013-01-16 19:31:00,33.1,17.4,-100.00,South,185,2.2,2.2,52,0.00,,,0.00,VWS V14.01,2013-01-17 03:31:00,
2013-01-16 19:36:00,34.3,17.6,-100.00,SW,214,4.0,4.0,50,0.00,,,0.00,VWS V14.01,2013-01-17 03:36:00,
2013-01-16 19:41:00,35.2,17.0,-100.00,SSW,194,3.1,3.6,47,0.00,,,0.00,VWS V14.01,2013-01-17 03:41:00,
2013-01-16 19:46:00,36.0,16.7,-100.00,South,184,3.1,3.1,45,0.00,,,0.00,VWS V14.01,2013-01-17 03:46:00,
2013-01-16 19:51:00,36.1,16.9,-100.00,SSE,161,2.7,3.1,45,0.00,,,0.00,VWS V14.01,2013-01-17 03:51:00,
2013-01-16 19:56:00,36.0,16.7,-100.00,SSW,192,2.7,3.1,45,0.00,,,0.00,VWS V14.01,2013-01-17 03:56:00,
2013-01-16 20:01:00,35.8,16.5,-100.00,South,171,0.0,2.7,45,0.00,,,0.00,VWS V14.01,2013-01-17 04:01:00,
2013-01-16 20:06:00,35.6,16.4,-100.00,SSW,206,2.2,3.6,45,0.00,,,0.00,VWS V14.01,2013-01-17 04:06:00,
2013-01-16 20:11:00,35.6,16.4,-100.00,South,188,3.1,3.6,45,0.00,,,0.00,VWS V14.01,2013-01-17 04:11:00,
2013-01-16 20:16:00,35.4,16.7,-100.00,South,183,2.7,3.1,46,0.00,,,0.00,VWS V14.01,2013-01-17 04:16:00,
2013-01-16 20:21:00,35.4,16.7,-100.00,SSE,160,2.7,2.7,46,0.00,,,0.00,VWS V14.01,2013-01-17 04:21:00,
2013-01-16 20:26:00,35.4,16.7,-100.00,South,183,3.1,3.1,46,0.00,,,0.00,VWS V14.01,2013-01-17 04:26:00,
2013-01-16 20:31:00,35.2,16.5,-100.00,SSW,198,2.7,3.6,46,0.00,,,0.00,VWS V14.01,2013-01-17 04:31:00,
2013-01-16 20:36:00,35.1,16.9,-100.00,South,189,3.1,3.1,47,0.00,,,0.00,VWS V14.01,2013-01-17 04:36:00,
2013-01-16 20:41:00,34.9,16.7,-100.00,South,190,3.6,3.6,47,0.00,,,0.00,VWS V14.01,2013-01-17 04:41:00,
2013-01-16 20:46:00,34.9,16.7,-100.00,South,176,2.7,2.7,47,0.00,,,0.00,VWS V14.01,2013-01-17 04:46:00,
2013-01-16 20:51:00,34.7,17.0,-100.00,South,180,2.7,3.6,48,0.00,,,0.00,VWS V14.01,2013-01-17 04:51:00,
2013-01-16 20:56:00,34.5,17.3,-100.00,South,178,2.7,3.1,49,0.00,,,0.00,VWS V14.01,2013-01-17 04:56:00,
2013-01-16 21:00:00,34.5,17.3,-100.00,South,177,3.1,3.1,49,0.00,,,0.00,VWS V14.01,2013-01-17 05:00:00,
2013-01-16 21:01:00,34.3,17.2,-100.00,South,187,3.1,3.1,49,0.00,,,0.00,VWS V14.01,2013-01-17 05:01:00,
2013-01-16 21:03:00,34.3,17.2,-100.00,SSE,157,3.1,3.1,49,0.00,,,0.00,VWS V14.01,2013-01-17 05:03:00,
2013-01-16 21:08:00,34.3,17.2,-100.00,South,182,2.7,3.6,49,0.00,,,0.00,VWS V14.01,2013-01-17 05:08:00,
2013-01-16 21:13:00,34.3,17.2,-100.00,South,178,2.7,2.7,49,0.00,,,0.00,VWS V14.01,2013-01-17 05:13:00,
2013-01-16 21:18:00,34.2,17.0,-100.00,South,176,0.0,0.0,49,0.00,,,0.00,VWS V14.01,2013-01-17 05:18:00,
2013-01-16 21:23:00,34.0,17.3,-100.00,South,177,2.7,2.7,50,0.00,,,0.00,VWS V14.01,2013-01-17 05:23:00,
2013-01-16 21:28:00,33.6,17.0,-100.00,South,171,4.9,4.9,50,0.00,,,0.00,VWS V14.01,2013-01-17 05:28:00,
2013-01-16 21:33:00,33.6,17.0,-100.00,South,184,2.7,3.1,50,0.00,,,0.00,VWS V14.01,2013-01-17 05:33:00,
2013-01-16 21:38:00,33.6,17.0,-100.00,SSW,197,3.1,3.6,50,0.00,,,0.00,VWS V14.01,2013-01-17 05:38:00,
2013-01-16 21:43:00,33.6,17.0,-100.00,SSW,200,3.6,3.6,50,0.00,,,0.00,VWS V14.01,2013-01-17 05:43:00,
2013-01-16 21:48:00,33.6,17.0,-100.00,South,184,3.1,3.1,50,0.00,,,0.00,VWS V14.01,2013-01-17 05:48:00,
2013-01-16 21:53:00,33.4,16.8,-100.00,SSW,200,3.1,4.0,50,0.00,,,0.00,VWS V14.01,2013-01-17 05:53:00,
2013-01-16 21:58:00,33.4,16.8,-100.00,SSE,164,3.1,5.4,50,0.00,,,0.00,VWS V14.01,2013-01-17 05:58:00,
2013-01-16 22:03:00,33.3,16.6,-100.00,SSW,209,0.0,0.0,50,0.00,,,0.00,VWS V14.01,2013-01-17 06:03:00,
2013-01-16 22:08:00,33.3,16.6,-100.00,South,174,3.1,3.1,50,0.00,,,0.00,VWS V14.01,2013-01-17 06:08:00,
2013-01-16 22:13:00,33.1,16.5,-100.00,South,179,5.4,5.4,50,0.00,,,0.00,VWS V14.01,2013-01-17 06:13:00,
2013-01-16 22:18:00,32.9,16.8,-100.00,South,181,4.0,4.0,51,0.00,,,0.00,VWS V14.01,2013-01-17 06:18:00,
2013-01-16 22:23:00,32.7,16.6,-100.00,South,188,3.1,3.1,51,0.00,,,0.00,VWS V14.01,2013-01-17 06:23:00,
2013-01-16 22:28:00,32.5,16.4,-100.00,SSW,208,2.7,2.7,51,0.00,,,0.00,VWS V14.01,2013-01-17 06:28:00,
2013-01-16 22:33:00,32.4,16.3,-100.00,South,178,0.0,0.0,51,0.00,,,0.00,VWS V14.01,2013-01-17 06:33:00,
2013-01-16 22:38:00,32.0,16.4,-100.00,SSW,193,0.0,0.0,52,0.00,,,0.00,VWS V14.01,2013-01-17 06:38:00,
2013-01-16 22:43:00,31.8,16.2,-100.00,SSW,194,0.0,0.0,52,0.00,,,0.00,VWS V14.01,2013-01-17 06:43:00,
2013-01-16 22:48:00,31.6,16.0,-100.00,SW,234,0.0,0.0,52,0.00,,,0.00,VWS V14.01,2013-01-17 06:48:00,
2013-01-16 22:53:00,31.6,16.5,-100.00,SSW,207,0.0,0.0,53,0.00,,,0.00,VWS V14.01,2013-01-17 06:53:00,
2013-01-16 22:58:00,31.5,16.3,-100.00,South,182,0.0,0.0,53,0.00,,,0.00,VWS V14.01,2013-01-17 06:58:00,
2013-01-16 23:03:00,31.3,16.1,-100.00,SSE,156,4.0,4.9,53,0.00,,,0.00,VWS V14.01,2013-01-17 07:03:00,
2013-01-16 23:08:00,31.5,16.3,-100.00,SSW,210,3.1,3.1,53,0.00,,,0.00,VWS V14.01,2013-01-17 07:08:00,
2013-01-16 23:13:00,31.6,16.5,-100.00,SSW,207,0.0,2.7,53,0.00,,,0.00,VWS V14.01,2013-01-17 07:13:00,
2013-01-16 23:18:00,31.5,16.3,-100.00,SSW,192,0.0,0.0,53,0.00,,,0.00,VWS V14.01,2013-01-17 07:18:00,
2013-01-16 23:23:00,31.3,16.1,-100.00,South,175,2.7,3.1,53,0.00,,,0.00,VWS V14.01,2013-01-17 07:23:00,
2013-01-16 23:28:00,31.5,16.3,-100.00,South,173,2.7,2.7,53,0.00,,,0.00,VWS V14.01,2013-01-17 07:28:00,
2013-01-16 23:33:00,31.6,16.0,-100.00,SSW,213,3.1,3.1,52,0.00,,,0.00,VWS V14.01,2013-01-17 07:33:00,
2013-01-16 23:38:00,31.6,16.0,-100.00,SW,229,0.0,0.0,52,0.00,,,0.00,VWS V14.01,2013-01-17 07:38:00,
2013-01-16 23:43:00,31.1,15.5,-100.00,SW,229,0.0,0.0,52,0.00,,,0.00,VWS V14.01,2013-01-17 07:43:00,
2013-01-16 23:48:00,30.7,15.6,-100.00,SW,229,0.0,0.0,53,0.00,,,0.00,VWS V14.01,2013-01-17 07:48:00,
2013-01-16 23:53:00,30.4,15.7,-100.00,SW,217,0.0,0.0,54,0.00,,,0.00,VWS V14.01,2013-01-17 07:53:00,
2013-01-16 23:58:00,30.2,15.6,-100.00,SW,220,0.0,0.0,54,0.00,,,0.00,VWS V14.01,2013-01-17 07:58:00,